STARLINK-5672, 55468

Orbit data source: Space-Track

STARLINK-5672, 55468 is a payload satellite owned by SpaceX/Seattle (US) in LEO that was launched on Thu, 02 Feb 2023 UTC via an FALCON 9 launch vehicle from the Air Force Eastern Test Range (AFETR). Payload-class satellites include a variety of spacecraft equipped with specific instruments for various scientific and technological missions. These include communications satellites like Starlink; space stations such as the ISS; scientific satellites like the Hubble; Earth observation satellites from companies like Planet Labs, Umbra, and HawkEye 360; GPS; miniature CubeSats for education and research; and military/defense satellites.

Loading next visibility...
Identifier
55468, 2023-015V
Orbit
LEO
Country
Flag of USUS
Related business
Manufacturer
SpaceX/Seattle
Mission
Operational Commercial Communications
Bus & Motor
STARLINK, Unknown motor
Mass
305 kg wet, ~290 kg dry
Launch date (UTC)
2023-02-02 (3 years ago)
Launch vehicle
FALCON 9
Launch site
Air Force Eastern Test Range (AFETR)
Object type
Payload
Rocket body
Debris
Shape & HBR
Box + 1 Pan, 10.1 m
Radar Cross Section
13.562 m², Large (>1 m²)

Expand to show TLE details & history
Last TLE update: 22 hours ago

TLE from 22 hours ago
0 STARLINK-5672
1 55468U 23015V   25352.43839652 -.00000383  00000-0 -13269-4 0  9997
2 55468  43.0045  47.3170 0001381 266.9482  93.1203 15.02535481158532
Epoch: 2025-12-18T10:31Z
TLE epoch observation values (Epoch: 2025-12-18T10:31:17.459Z)
Latitude
0.00003°
Longitude
162.20039°
Altitude
558.912 km
Speed
7.584 km/s
True Right ascension
03h 09m 16s
True Declination
0° 00' 00"
Sunlit
Object was in full shadow at epoch
Visualization orbit readout
Latitude
Unknown
Longitude
Unknown
Altitude
Unknown
Speed
Unknown
Apparent Right ascension
Unknown
Apparent Declination
Unknown
Sunlit
N/A
Visualization observer readout
Local Sidereal Time
07:50:47
Azimuth
Unknown
Elevation
Unknown
Doppler factor
Unknown
Orbital elements
Apogee altitude
561.963 km
Perigee altitude
560.046 km
Semi-major axis
6,939.141 km
Eccentricity
0.00014
Inclination
43.0045°
RAAN
47.317°
Arg. of periapsis
266.9482°
True anomaly
93.1361°
Mean anomaly
93.1203°
Eccentric anomaly
93.1282°
Mean motion
3.75478 °/min
Orbital period
95.88 mins
BSTAR
-0.000013269
Loading maneuver chart data...
Computing Atmospheric mass density...
Loading historical data...
Loading historical data...
Loading historical data...
Loading historical data...
Loading historical data...
Loading historical data...
Loading historical data...

Documentation

Showing up to 5 results
|